Location: The Saddle
(36.8333°N, 80.3417°W)
Time: 03:58:47
(UTC-04:00)

Tiros 1 - Pass Details

Date: 22 January 2022
Orbit: 630 x 663 km, 48.4° (Epoch: 29 May)

Event Time Altitude Azimuth Distance (km) Brightness Sun altitude
Exits shadow 04:14:09 12° 63° (ENE) 1,919 10.1 -39.1°
Drops below altitude 10° 04:14:35 10° 66° (ENE) 2,044 10.3 -39.0°
Sets 04:17:19 0° 81° (E) 2,946 11.5 -38.5°
